Regional Weather Roundup
Issued by NWS

Home | Current Version | Previous Version | Graphics & Text | Print | Product List | Glossary On
Versions: 1 2 3 4 5 6 7 8 9 10 11 12 13 14 15 16 17 18 19 20 21 22 23 24 25 26 27 28 29 30 31 32 33 34 35 36 37 38 39 40 41 42 43 44 45 46 47 48 49 50
024
ASUS45 KTFX 260410
RWRMT
MONTANA REGIONAL WEATHER ROUNDUP
NATIONAL WEATHER SERVICE GREAT FALLS MT
1000 PM MDT MON JUL 25 2016

NOTE: "FAIR" INDICATES FEW OR NO CLOUDS BELOW 12000 FEET WITH NO
SIGNIFICANT WEATHER AND/OR OBSTRUCTIONS TO VISIBILITY.

MTZ001>007-043-260500-
WEST OF THE DIVIDE

CITY           SKY/WX    TMP DP  RH WIND       PRES   REMARKS
KALISPELL      CLEAR     71  55  56 N13       30.00R
MISSOULA       CLEAR     76  45  33 NW6       30.02R
BUTTE          CLOUDY    67  49  52 S5        30.19R
MULLAN PASS    CLEAR     65  42  43 VRB3      30.22S
ANACONDA         N/A     63  50  63 SW5       30.15S
DEER LODGE       N/A     64  50  59 CALM      30.16R
EUREKA           N/A     79  50  36 NW6       30.00R
HAMILTON         N/A     68  46  45 CALM      30.05R
LIBBY            N/A     73  48  40 CALM      29.99R
PLAINS           N/A     79  47  32 NE2       29.99R
RONAN            N/A     68  56  65 CALM      30.06R
THOMPSON FALLS   N/A     75  50  41 CALM      30.02R
$$

MTZ008-052>055-260500-
SOUTHWEST MONTANA

CITY           SKY/WX    TMP DP  RH WIND       PRES   REMARKS
BOZEMAN        CLOUDY    78  40  25 NE13      30.11R
DILLON         CLOUDY    68  44  42 NE7       30.14R
W YELLOWSTONE  CLOUDY    64  30  27 CALM      30.24R
ENNIS          CLEAR     73  36  25 N15G21    30.18S
THREE FORKS      N/A     76 -17   2 NW12      30.06F
TWIN BRIDGES     N/A     73  41  31 N14       30.09R
$$

MTZ009-010-012-014-046-048-049-054-260500-
EAST SLOPES AND CENTRAL MONTANA

CITY           SKY/WX    TMP DP  RH WIND       PRES   REMARKS
CUT BANK         N/A     70  50  49 NE7       30.10R
GREAT FALLS    PTCLDY    75  45  34 SW18G25   30.09R
MALMSTROM AFB  PTCLDY    78  43  28 W2        30.08R
HELENA         CLOUDY    70  53  54 W8        30.08R
CHOTEAU          N/A     68  50  52 N7        30.12R
CONRAD           N/A     70  56  61 CALM      30.11R
$$

MTZ011-013-016-021-045-047-050-051-260500-
NORTH CENTRAL MONTANA

CITY           SKY/WX    TMP DP  RH WIND       PRES   REMARKS
HAVRE          CLEAR     76  59  55 NE13      30.01R
LEWISTOWN      MOCLDY    72  53  51 CALM      30.10R
N BAR RANCH      N/A     79  37  22 S9G23     30.12F
CHINOOK          N/A     77  59  53 E7        30.01R
$$

MTZ017>020-022>027-061-062-260500-
NORTHEAST MONTANA

CITY           SKY/WX    TMP DP  RH WIND       PRES   REMARKS
GLASGOW        CLEAR     74  59  59 NE14      29.99R
JORDAN           N/A     75  49  39 NE9       29.99R
SIDNEY         CLEAR     74  58  57 NE6       29.98R
WOLF POINT     CLEAR     74  55  51 NE10      29.98R
PLENTYWOOD       N/A     72  61  68 NE7       30.02R
POPLAR           N/A     75  55  50 E8        29.98R
SCOBEY           N/A     70  55  58 N6        30.03R
$$

MTZ028>42-056>058-260500-
SOUTHCENTRAL AND SOUTHEAST MONTANA

CITY           SKY/WX    TMP DP  RH WIND       PRES   REMARKS
BAKER          CLEAR     77  55  46 E12       30.00R
BILLINGS       CLOUDY    81  47  30 N21G41    30.00F THUNDER
LIVINGSTON     CLOUDY    74  47  38 E7        30.14R
MILES CITY     CLEAR     84  47  27 NE15      29.95R
EKALAKA          N/A     76  45  33 E6        30.01R
FORSYTH          N/A     84  46  26 NE9       29.95R
LAUREL           N/A     81  44  26 NW25      30.04R
ROUNDUP          N/A     78  45  31 S8        30.01R
$$

REGIONAL REPORTS...DAKOTAS

CITY           SKY/WX    TMP DP  RH WIND       PRES   REMARKS
WILLISTON      CLEAR     77  59  53 E7        29.99R
MINOT          CLEAR     74  66  76 NE3       29.97R
DICKINSON      CLOUDY    69  58  67 NE8       29.99R
BEACH            N/A     66  54  63 NE3       30.04R
CROSBY           N/A     64  64 100 N5        30.02R
WATFORD CITY     N/A    N/A N/A N/A MISG        N/A
BISMARCK       CLEAR     81  67  62 NE12      29.94R
GRAND FORKS    MOCLDY    77  70  79 NE10      29.90R
FARGO          PTCLDY    79  66  64 S13       29.91S
BUFFALO SD       N/A     75  53  46 VRB3      29.95R
RAPID CITY     CLEAR     72  58  61 SE3       30.02R
$$

REGIONAL REPORTS...WYOMING/IDAHO/WASHINGTON

CITY           SKY/WX    TMP DP  RH WIND       PRES   REMARKS
GILLETTE       CLEAR     70  39  32 S7        30.03R
SHERIDAN       CLEAR     70  46  42 S5        30.00R
BUFFALO WY     CLEAR     76  35  22 W9        30.09R
CODY           CLEAR     79  30  17 N6        30.09R
YELLOWSTONE LA   N/A     54  32  43 CALM      30.36R
IDAHO FALLS    CLEAR     79  37  22 S7        30.05R
SALMON         CLEAR     70  48  46 CALM      30.03R
BOISE          CLEAR     88  34  14 CALM      29.90R
SPOKANE        PTCLDY    86  43  22 E3        29.97R
$$

REGIONAL REPORTS...ALBERTA

CITY           SKY/WX    TMP DP  RH WIND       PRES   REMARKS
EDMONTON       CLEAR     64  52  63 SE7       30.02R
LETHBRIDGE     MOCLDY    73  59  60 N8G18     30.09R
MEDICINE HAT   CLEAR     73  57  56 E8        30.04R
$$

REGIONAL REPORTS...SASKATCHEWAN

CITY           SKY/WX    TMP DP  RH WIND       PRES   REMARKS
SWIFT CURRENT  CLEAR     64  55  72 E8        30.08R
REGINA         PTCLDY    64  57  77 NE3       30.04R
SASKATOON      PTCLDY    59  50  72 NW7       30.06R
$$




USA.gov is the U.S. government's official web portal to all federal, state and local government web resources and services.